Regional Weather Roundup
Issued by NWS Goodland, KS

Home | Current Version | Previous Version | Graphics & Text | Print | Product List | Glossary On
Versions: 1 2 3 4 5 6 7 8 9 10 11 12 13 14 15 16 17 18 19 20 21 22 23 24 25 26 27 28 29 30 31 32 33 34 35 36 37 38 39 40 41 42 43 44 45 46 47 48 49 50
000
ASUS43 KGLD 280659
RWRGLD

GOODLAND FORECAST AREA HOURLY WEATHER ROUNDUP
NATIONAL WEATHER SERVICE GOODLAND KS
100 AM MDT WED JUN 28 2017

...OFFICIAL OBSERVATIONS...

CITY           SKY/WX    TMP DP  RH WIND       PRES   REMARKS
GOODLAND KS    CLOUDY    69  59  70 VRB6      29.80R
HILL CITY KS   LGT RAIN  75  60  59 SE13G41   29.73F
IMPERIAL NEB   PTCLDY    67  56  67 S9        29.77F
MCCOOK NEB     CLOUDY    68  62  81 N6        29.78R
AKRON CO       CLEAR     58  44  60 NW6       29.90R
BURLINGTON CO  CLEAR     66  56  70 E8        29.83F
LIMON CO       CLEAR     58  42  55 N7        29.94R
$$

...UNOFFICIAL OBSERVATIONS...

CITY           SKY/WX    TMP DP  RH WIND       PRES   REMARKS
LENORA KS        N/A     77  32  19 MISG        N/A
NORTON KS      PTCLDY    75  54  46 S16G26    29.71
SHARON SPRINGS   N/A     70  61  73 SE20G30     N/A
TRENTON NEB      N/A     69  32  25 S8          N/A
KIT CARSON CO    N/A     65  55  69 MISG        N/A
YUMA CO        FAIR      61  50  67 N9        29.86R
$$




USA.gov is the U.S. government's official web portal to all federal, state and local government web resources and services.